SCP
-0 -0 -0 -0 -0 -0 -0 -1 -1 -1 -0 -0 -0 -0 -1 -0 -0 -0 -0 -0 -0 -0 -0 -0 -0 -0 -0 0 0 0 0 0 0 0 0 0 0 0 0 0 0 0 0
-0 -0 -0 -0 -0 -0 -0 -1 -1 -1 -0 -0 -0 -0 -1 -1 -1 -0 -0 -0 -0 -0 -0 -0 -0 -0 -0 0 0 0 0 0 0 0 0 0 0 0 0 0 0 0 0
-1 -1 -0 -0 -0 -0 -0 -1 -1 -1 -1 -0 -0 -0 -0 -0 -0 -0 -0 -0 -0 -0 -0 -0 -0 -0 -0 0 0 0 0 0 0 0 0 0 0 0 0 0 0 0 0
-0 -0 -0 -0 -0 -0 -0 -0 -0 -1 -1 -1 -0 -0 -0 -0 -0 -0 -0 -0 -0 -0 -0 -0 -0 -0 0 0 0 0 0 0 0 0 0 0 0 0 0 0 0 0 0
0 0 -0 -0 -0 -0 -0 -0 -0 -0 -1 -1 -1 -0 -0 -0 -0 -0 -0 -0 -0 -0 -0 -0 -0 -0 0 0 0 0 0 0 0 0 0 0 0 0 0 0 0 0 0
0 0 0 -0 -0 -0 -0 -0 -0 -0 -0 -1 -0 -0 -0 -0 -0 -0 -0 -0 -0 -0 -0 -0 -0 -0 -0 0 0 0 0 0 0 0 0 0 0 0 0 0 0 0 0
0 0 0 0 0 -0 0 0 -0 -0 -0 -0 -0 -0 -0 -0 -0 -0 -0 -0 -0 -0 -0 -0 -0 -0 -0 0 0 0 0 0 0 0 0 0 0 0 0 0 0 0 0
0 0 0 0 0 0 0 0 0 0 0 -0 -0 -0 -0 -0 -0 -0 -0 -0 0 -0 -0 -0 -0 -0 -0 -0 0 0 0 0 0 0 0 0 0 0 0 0 0 0 0
0 0 -0 0 0 0 0 0 0 0 0 0 0 0 0 -0 -0 -0 -0 0 0 0 0 -0 -0 -0 -0 0 0 0 0 0 0 0 0 0 0 0 0 0 0 0 0
0 0 0 0 0 0 0 0 0 0 0 0 0 0 0 0 0 0 0 0 0 0 0 0 0 -0 0 0 0 0 0 0 0 0 0 0 0 0 0 0 0 0 0
1 1 1 1 1 0 0 1 1 0 0 0 0 0 0 0 0 0 0 0 0 0 0 0 0 0 0 0 0 0 0 0 0 0 0 0 0 0 0 0 0 0 0
1 1 1 1 1 1 1 1 1 1 1 0 0 0 0 0 0 0 0 0 0 0 0 0 0 0 0 0 0 0 0 0 0 0 0 0 0 0 0 0 0 0 0
0 1 1 1 1 1 1 2 2 1 1 1 1 1 0 0 0 0 0 0 0 0 0 0 0 0 0 0 0 0 0 0 0 0 0 0 0 0 0 0 0 0 0
0 0 0 2 2 1 1 1 2 1 1 1 1 1 1 1 0 0 0 0 0 0 0 0 0 0 0 0 0 0 0 0 0 0 0 0 0 0 0 0 0 0 0
0 0 0 0 1 2 2 2 2 2 1 1 1 1 1 1 0 0 0 0 0 0 0 0 0 0 0 0 0 0 0 0 0 0 0 0 0 0 0 0 0 0 0
0 0 0 0 0 1 2 2 2 2 2 2 1 1 1 2 1 0 0 0 0 0 0 0 0 0 0 0 0 0 0 0 0 0 0 0 0 0 0 0 0 0 0
0 0 0 0 0 0 1 1 2 2 2 2 2 1 1 1 1 0 0 0 0 0 0 0 0 0 0 0 0 0 0 0 0 0 0 1 0 0 0 0 0 0 0
0 0 0 0 0 0 1 2 3 2 3 2 2 2 1 1 1 0 1 0 0 0 0 0 0 0 0 0 0 0 0 0 0 0 0 0 0 0 0 0 0 0 0
0 0 0 0 0 0 1 1 2 3 3 2 2 2 1 1 1 1 1 0 1 0 0 0 0 0 0 0 0 0 0 0 0 0 0 0 0 0 0 0 0 0 0
0 0 0 0 0 0 0 2 2 3 3 3 3 2 1 2 1 1 1 1 1 0 0 0 0 0 0 0 0 0 1 1 1 1 1 0 0 0 0 0 0 0 0
0 0 0 0 0 0 0 1 2 2 3 3 2 1 2 1 1 1 1 1 1 1 1 1 1 1 1 0 0 1 0 0 1 0 0 0 0 0 0 0 0 0 0
0 0 0 0 0 0 0 0 1 1 2 3 2 2 2 1 2 1 1 1 1 1 1 1 1 1 1 0 0 1 1 0 0 0 0 0 0 0 0 0 0 0 0
0 0 0 0 0 0 0 0 2 2 3 3 3 2 2 2 2 2 1 1 1 1 1 1 1 1 1 1 1 1 1 0 0 0 0 0 0 0 0 0 0 0 0
0 0 0 0 0 0 0 0 0 1 1 1 2 2 3 3 2 2 2 1 1 1 1 1 1 1 2 1 1 1 1 1 1 0 0 0 0 0 0 0 0 0 0
0 0 0 0 0 0 0 0 0 0 1 1 1 2 2 1 2 2 2 1 1 1 1 1 1 1 1 2 1 1 1 1 1 0 0 0 0 0 0 0 0 0 0
0 0 0 0 -0 0 0 0 0 0 1 1 1 1 1 1 1 1 3 3 2 1 0 1 1 1 1 2 2 2 1 1 0 0 0 0 0 0 0 0 0 0 0
Wind_Speed_500mb
24 30 32 32 28 22 19 21 37 46 44 39 33 35 44 45 44 42 42 41 37 31 32 28 23 24 23 21 21 20 22 20 15 18 24 26 27 30 33 36 38 35 37
27 33 32 31 26 24 22 23 39 46 42 39 33 34 40 43 43 41 41 38 34 30 29 26 20 20 19 17 18 18 20 22 20 14 20 20 25 28 32 34 35 34 37
29 37 34 30 27 23 21 24 36 43 42 38 35 33 35 40 41 41 40 37 32 28 25 23 19 18 16 14 14 15 15 16 16 14 12 16 21 27 30 32 34 34 35
27 41 36 32 28 24 20 22 32 40 40 38 35 34 34 38 40 40 38 36 32 26 24 22 19 17 13 10 9 10 9 9 11 12 10 12 18 24 27 30 31 32 33
26 37 35 32 29 26 22 20 24 34 39 40 39 36 36 37 39 40 38 35 32 27 26 23 20 16 12 7 4 3 3 4 10 13 9 9 14 21 25 28 30 30 29
22 29 29 29 28 26 25 23 22 27 34 38 40 38 38 37 38 39 39 35 31 29 28 25 20 15 11 8 5 4 4 5 8 8 9 8 11 17 24 23 26 27 29
12 24 25 24 24 24 24 24 24 24 29 34 38 38 38 37 38 40 41 36 31 30 28 25 20 16 12 10 9 8 8 8 8 8 8 6 9 15 23 22 23 26 28
8 16 22 23 24 24 24 25 25 25 26 31 35 36 38 38 40 41 43 38 32 30 28 24 21 18 15 13 13 12 11 9 9 9 6 5 8 12 20 20 23 26 27
6 10 17 24 25 27 28 28 27 27 26 28 33 35 38 39 41 42 44 41 35 31 29 23 20 17 17 16 16 14 12 9 8 6 1 5 8 9 16 20 22 25 26
3 6 10 18 28 29 30 31 31 30 30 29 31 35 36 38 41 43 46 43 38 34 32 25 21 19 19 18 17 16 12 9 7 6 3 7 6 9 14 17 19 23 24
12 13 13 15 19 29 34 34 35 35 34 33 33 35 37 40 41 44 48 47 41 38 35 30 26 23 22 20 18 17 12 9 8 7 6 8 4 9 10 13 16 20 22
16 17 21 23 24 25 30 35 39 40 41 41 40 39 42 44 44 45 48 48 45 43 39 36 32 28 25 22 20 18 13 10 8 7 7 7 5 8 10 14 14 15 21
21 19 23 24 27 32 32 33 39 44 47 46 45 45 45 46 47 48 50 50 49 47 44 41 36 32 28 24 21 20 15 11 8 7 8 4 7 12 11 11 11 11 18
22 28 30 35 36 37 36 37 38 39 47 50 49 50 52 52 51 52 53 52 51 49 47 42 38 35 30 26 22 21 19 16 11 12 11 9 12 13 13 9 11 12 15
32 25 24 32 41 45 45 44 43 43 41 47 50 52 57 56 56 54 53 52 51 50 47 45 41 36 31 28 25 23 24 20 15 14 14 14 12 11 13 11 12 12 14
47 42 37 34 36 50 52 51 50 48 47 47 48 49 57 61 61 58 55 52 50 48 48 46 43 37 34 31 27 26 27 25 20 16 15 18 13 13 12 12 12 10 14
57 54 49 46 41 40 49 51 56 53 53 52 50 51 54 58 60 62 56 53 48 45 47 46 44 41 38 34 30 28 28 26 24 18 19 21 18 15 15 15 12 11 12
50 56 54 54 55 51 47 54 59 56 53 57 54 51 49 49 56 57 56 54 49 48 47 47 45 43 40 37 33 29 26 25 25 25 23 23 21 18 17 15 13 14 11
39 43 52 56 58 61 58 52 59 65 65 57 58 53 48 46 50 49 53 56 53 51 49 46 46 44 42 41 37 33 28 26 26 27 24 24 21 19 20 16 16 16 17
25 24 32 44 55 60 62 64 61 68 67 62 62 59 51 45 44 46 50 53 54 54 51 49 45 45 42 35 36 33 31 26 28 25 25 26 24 22 22 18 17 21 24
35 35 39 27 30 47 54 64 67 64 70 65 67 60 62 50 47 45 46 44 52 56 57 49 47 46 43 40 36 33 29 27 28 26 28 30 26 23 23 22 25 27 25
39 47 54 55 50 26 40 51 53 52 63 68 70 72 70 63 57 52 46 45 48 52 54 54 54 47 43 45 32 26 17 17 26 27 30 30 26 24 23 28 27 27 25
39 44 48 58 62 55 39 37 49 51 61 73 79 75 69 73 59 50 47 48 46 45 51 50 56 60 43 51 46 29 19 23 28 26 25 26 22 23 25 26 28 28 20
43 48 46 45 59 62 53 42 29 40 47 58 75 78 79 71 62 58 54 50 43 42 49 51 49 61 61 53 50 51 37 22 21 16 25 27 28 27 26 28 28 24 18
40 48 58 62 59 60 60 47 39 28 42 46 49 65 76 79 69 65 62 55 49 44 41 52 53 53 67 63 66 51 54 45 35 22 22 30 27 28 29 29 26 21 21
44 52 59 66 77 75 64 54 41 36 32 42 54 59 67 74 81 74 64 61 59 54 46 48 53 56 67 73 72 60 53 52 49 43 20 28 32 31 33 31 24 20 19
Wind_Direction_500mb
176 178 169 169 169 167 162 168 162 165 161 153 146 154 163 160 160 158 156 151 148 151 149 142 133 125 114 107 101 90 78 75 74 65 56 49 46 42 39 35 28 25 24
196 181 174 174 171 165 166 171 165 165 163 158 155 157 165 164 164 164 162 157 152 153 151 146 144 136 127 111 101 94 87 72 62 70 47 42 40 36 34 33 28 26 24
193 185 178 178 175 172 168 171 171 170 169 167 165 166 167 170 170 168 167 165 162 160 160 156 157 150 140 119 104 98 90 69 54 48 36 36 32 30 27 28 25 26 26
176 183 180 180 180 179 178 177 177 178 178 177 179 178 176 176 176 174 171 172 172 168 171 168 168 163 154 131 106 93 91 60 30 22 18 23 24 24 20 19 22 26 26
172 180 182 183 183 184 185 186 186 187 189 189 190 190 186 184 182 180 176 179 178 179 177 173 177 178 168 160 136 97 66 27 2 8 1 13 21 16 17 11 17 24 30
182 188 190 190 190 191 192 193 195 198 198 198 200 198 195 193 190 188 184 182 184 182 182 182 185 192 193 194 217 254 278 295 324 341 353 8 19 4 7 11 14 19 27
171 195 202 205 204 203 202 202 202 204 208 207 207 207 206 203 199 196 191 187 189 188 190 189 190 200 215 220 236 257 276 284 292 297 325 5 356 360 1 6 11 19 25
168 204 214 213 213 215 216 215 213 211 213 213 213 213 214 212 208 204 198 195 194 195 195 197 197 203 219 231 244 257 275 284 289 293 301 352 344 353 2 3 10 18 25
160 209 225 224 225 224 222 223 225 223 219 220 220 217 215 213 211 210 205 202 201 200 199 205 207 210 224 231 242 253 264 276 288 286 271 335 344 347 355 360 7 20 25
240 243 238 234 234 233 233 230 229 230 227 225 223 220 217 215 213 211 209 209 208 208 208 215 223 221 229 234 240 252 260 269 267 253 283 312 331 341 351 355 9 23 26
277 263 270 261 251 243 239 239 235 232 230 227 226 223 220 218 214 212 212 215 216 217 220 224 231 232 232 233 242 252 256 257 246 241 284 312 303 329 337 353 9 19 26
304 282 278 283 278 266 254 249 245 240 234 232 227 227 224 223 220 218 219 220 221 224 225 228 233 235 237 235 239 248 249 244 230 250 280 301 258 304 321 343 359 13 25
296 287 286 274 265 273 269 263 254 248 242 236 234 231 230 229 227 224 225 223 223 224 227 229 232 235 240 237 238 240 234 226 231 258 274 275 258 286 312 325 337 4 14
310 283 282 279 269 266 262 261 260 255 249 244 241 237 235 233 232 232 231 230 228 227 230 232 232 236 241 240 237 236 228 225 240 258 244 233 272 294 295 304 314 342 351
310 300 288 282 264 264 262 256 254 254 248 247 246 247 245 242 238 236 236 235 234 232 232 232 232 236 242 242 238 234 232 231 243 248 244 247 257 278 285 287 304 327 337
304 295 289 288 276 261 261 257 255 252 253 248 249 250 251 246 247 239 238 239 239 236 235 235 235 237 242 243 242 239 241 235 242 244 248 248 243 243 265 278 283 319 336
296 287 282 278 275 269 254 258 254 253 253 249 251 253 256 253 243 245 239 243 241 239 238 237 238 240 242 244 243 246 243 236 239 242 246 248 235 232 253 263 279 313 322
289 275 267 268 269 266 259 252 253 250 257 257 253 252 257 254 244 246 243 241 241 239 237 238 239 241 240 243 242 238 233 237 242 241 244 233 229 236 244 250 275 299 307
309 292 272 266 262 262 262 254 247 248 249 254 256 256 257 255 248 243 246 245 240 238 239 239 240 241 242 239 238 237 237 243 239 236 236 225 231 231 233 236 254 282 263
346 334 302 274 265 259 262 255 247 243 245 249 254 260 258 258 251 246 246 246 245 241 239 238 238 240 237 236 232 231 232 235 231 230 225 220 229 233 243 233 253 257 266
24 22 19 352 286 261 262 254 248 244 236 241 248 249 251 251 251 251 248 241 248 247 244 240 238 239 234 237 222 218 228 229 224 221 218 222 232 240 244 238 235 263 271
19 19 23 23 18 345 258 253 244 248 236 234 243 243 247 247 249 250 250 249 250 244 243 238 235 234 227 225 207 202 208 214 220 219 221 230 224 233 239 238 252 255 268
8 9 9 13 16 14 358 259 244 245 246 235 238 246 248 249 249 246 249 248 255 248 239 242 233 229 221 222 212 206 200 215 190 216 218 226 231 239 235 236 242 249 259
353 353 354 354 358 4 6 0 271 251 246 245 239 246 249 251 246 242 243 248 249 253 245 243 244 232 223 223 218 218 215 204 189 179 201 212 210 213 220 229 232 242 265
346 344 345 347 341 342 350 354 349 297 259 253 247 249 249 245 241 239 245 245 252 251 254 250 248 246 234 227 226 219 218 221 223 198 191 199 200 205 213 221 224 241 279
332 330 331 335 339 334 328 334 334 328 321 259 249 247 248 250 244 238 247 242 248 250 253 255 253 248 244 234 232 223 220 213 216 221 189 180 199 191 202 214 227 255 282
Wind_Speed_850mb
24 30 32 32 28 22 19 21 37 46 44 39 33 35 44 45 44 42 42 41 37 31 32 28 23 24 23 21 21 20 22 20 15 18 24 26 27 30 33 36 38 35 37
27 33 32 31 26 24 22 23 39 46 42 39 33 34 40 43 43 41 41 38 34 30 29 26 20 20 19 17 18 18 20 22 20 14 20 20 25 28 32 34 35 34 37
29 37 34 30 27 23 21 24 36 43 42 38 35 33 35 40 41 41 40 37 32 28 25 23 19 18 16 14 14 15 15 16 16 14 12 16 21 27 30 32 34 34 35
27 41 36 32 28 24 20 22 32 40 40 38 35 34 34 38 40 40 38 36 32 26 24 22 19 17 13 10 9 10 9 9 11 12 10 12 18 24 27 30 31 32 33
26 37 35 32 29 26 22 20 24 34 39 40 39 36 36 37 39 40 38 35 32 27 26 23 20 16 12 7 4 3 3 4 10 13 9 9 14 21 25 28 30 30 29
22 29 29 29 28 26 25 23 22 27 34 38 40 38 38 37 38 39 39 35 31 29 28 25 20 15 11 8 5 4 4 5 8 8 9 8 11 17 24 23 26 27 29
12 24 25 24 24 24 24 24 24 24 29 34 38 38 38 37 38 40 41 36 31 30 28 25 20 16 12 10 9 8 8 8 8 8 8 6 9 15 23 22 23 26 28
8 16 22 23 24 24 24 25 25 25 26 31 35 36 38 38 40 41 43 38 32 30 28 24 21 18 15 13 13 12 11 9 9 9 6 5 8 12 20 20 23 26 27
6 10 17 24 25 27 28 28 27 27 26 28 33 35 38 39 41 42 44 41 35 31 29 23 20 17 17 16 16 14 12 9 8 6 1 5 8 9 16 20 22 25 26
3 6 10 18 28 29 30 31 31 30 30 29 31 35 36 38 41 43 46 43 38 34 32 25 21 19 19 18 17 16 12 9 7 6 3 7 6 9 14 17 19 23 24
12 13 13 15 19 29 34 34 35 35 34 33 33 35 37 40 41 44 48 47 41 38 35 30 26 23 22 20 18 17 12 9 8 7 6 8 4 9 10 13 16 20 22
16 17 21 23 24 25 30 35 39 40 41 41 40 39 42 44 44 45 48 48 45 43 39 36 32 28 25 22 20 18 13 10 8 7 7 7 5 8 10 14 14 15 21
21 19 23 24 27 32 32 33 39 44 47 46 45 45 45 46 47 48 50 50 49 47 44 41 36 32 28 24 21 20 15 11 8 7 8 4 7 12 11 11 11 11 18
22 28 30 35 36 37 36 37 38 39 47 50 49 50 52 52 51 52 53 52 51 49 47 42 38 35 30 26 22 21 19 16 11 12 11 9 12 13 13 9 11 12 15
32 25 24 32 41 45 45 44 43 43 41 47 50 52 57 56 56 54 53 52 51 50 47 45 41 36 31 28 25 23 24 20 15 14 14 14 12 11 13 11 12 12 14
47 42 37 34 36 50 52 51 50 48 47 47 48 49 57 61 61 58 55 52 50 48 48 46 43 37 34 31 27 26 27 25 20 16 15 18 13 13 12 12 12 10 14
57 54 49 46 41 40 49 51 56 53 53 52 50 51 54 58 60 62 56 53 48 45 47 46 44 41 38 34 30 28 28 26 24 18 19 21 18 15 15 15 12 11 12
50 56 54 54 55 51 47 54 59 56 53 57 54 51 49 49 56 57 56 54 49 48 47 47 45 43 40 37 33 29 26 25 25 25 23 23 21 18 17 15 13 14 11
39 43 52 56 58 61 58 52 59 65 65 57 58 53 48 46 50 49 53 56 53 51 49 46 46 44 42 41 37 33 28 26 26 27 24 24 21 19 20 16 16 16 17
25 24 32 44 55 60 62 64 61 68 67 62 62 59 51 45 44 46 50 53 54 54 51 49 45 45 42 35 36 33 31 26 28 25 25 26 24 22 22 18 17 21 24
35 35 39 27 30 47 54 64 67 64 70 65 67 60 62 50 47 45 46 44 52 56 57 49 47 46 43 40 36 33 29 27 28 26 28 30 26 23 23 22 25 27 25
39 47 54 55 50 26 40 51 53 52 63 68 70 72 70 63 57 52 46 45 48 52 54 54 54 47 43 45 32 26 17 17 26 27 30 30 26 24 23 28 27 27 25
39 44 48 58 62 55 39 37 49 51 61 73 79 75 69 73 59 50 47 48 46 45 51 50 56 60 43 51 46 29 19 23 28 26 25 26 22 23 25 26 28 28 20
43 48 46 45 59 62 53 42 29 40 47 58 75 78 79 71 62 58 54 50 43 42 49 51 49 61 61 53 50 51 37 22 21 16 25 27 28 27 26 28 28 24 18
40 48 58 62 59 60 60 47 39 28 42 46 49 65 76 79 69 65 62 55 49 44 41 52 53 53 67 63 66 51 54 45 35 22 22 30 27 28 29 29 26 21 21
44 52 59 66 77 75 64 54 41 36 32 42 54 59 67 74 81 74 64 61 59 54 46 48 53 56 67 73 72 60 53 52 49 43 20 28 32 31 33 31 24 20 19
Wind_Direction_850mb
176 178 169 169 169 167 162 168 162 165 161 153 146 154 163 160 160 158 156 151 148 151 149 142 133 125 114 107 101 90 78 75 74 65 56 49 46 42 39 35 28 25 24
196 181 174 174 171 165 166 171 165 165 163 158 155 157 165 164 164 164 162 157 152 153 151 146 144 136 127 111 101 94 87 72 62 70 47 42 40 36 34 33 28 26 24
193 185 178 178 175 172 168 171 171 170 169 167 165 166 167 170 170 168 167 165 162 160 160 156 157 150 140 119 104 98 90 69 54 48 36 36 32 30 27 28 25 26 26
176 183 180 180 180 179 178 177 177 178 178 177 179 178 176 176 176 174 171 172 172 168 171 168 168 163 154 131 106 93 91 60 30 22 18 23 24 24 20 19 22 26 26
172 180 182 183 183 184 185 186 186 187 189 189 190 190 186 184 182 180 176 179 178 179 177 173 177 178 168 160 136 97 66 27 2 8 1 13 21 16 17 11 17 24 30
182 188 190 190 190 191 192 193 195 198 198 198 200 198 195 193 190 188 184 182 184 182 182 182 185 192 193 194 217 254 278 295 324 341 353 8 19 4 7 11 14 19 27
171 195 202 205 204 203 202 202 202 204 208 207 207 207 206 203 199 196 191 187 189 188 190 189 190 200 215 220 236 257 276 284 292 297 325 5 356 360 1 6 11 19 25
168 204 214 213 213 215 216 215 213 211 213 213 213 213 214 212 208 204 198 195 194 195 195 197 197 203 219 231 244 257 275 284 289 293 301 352 344 353 2 3 10 18 25
160 209 225 224 225 224 222 223 225 223 219 220 220 217 215 213 211 210 205 202 201 200 199 205 207 210 224 231 242 253 264 276 288 286 271 335 344 347 355 360 7 20 25
240 243 238 234 234 233 233 230 229 230 227 225 223 220 217 215 213 211 209 209 208 208 208 215 223 221 229 234 240 252 260 269 267 253 283 312 331 341 351 355 9 23 26
277 263 270 261 251 243 239 239 235 232 230 227 226 223 220 218 214 212 212 215 216 217 220 224 231 232 232 233 242 252 256 257 246 241 284 312 303 329 337 353 9 19 26
304 282 278 283 278 266 254 249 245 240 234 232 227 227 224 223 220 218 219 220 221 224 225 228 233 235 237 235 239 248 249 244 230 250 280 301 258 304 321 343 359 13 25
296 287 286 274 265 273 269 263 254 248 242 236 234 231 230 229 227 224 225 223 223 224 227 229 232 235 240 237 238 240 234 226 231 258 274 275 258 286 312 325 337 4 14
310 283 282 279 269 266 262 261 260 255 249 244 241 237 235 233 232 232 231 230 228 227 230 232 232 236 241 240 237 236 228 225 240 258 244 233 272 294 295 304 314 342 351
310 300 288 282 264 264 262 256 254 254 248 247 246 247 245 242 238 236 236 235 234 232 232 232 232 236 242 242 238 234 232 231 243 248 244 247 257 278 285 287 304 327 337
304 295 289 288 276 261 261 257 255 252 253 248 249 250 251 246 247 239 238 239 239 236 235 235 235 237 242 243 242 239 241 235 242 244 248 248 243 243 265 278 283 319 336
296 287 282 278 275 269 254 258 254 253 253 249 251 253 256 253 243 245 239 243 241 239 238 237 238 240 242 244 243 246 243 236 239 242 246 248 235 232 253 263 279 313 322
289 275 267 268 269 266 259 252 253 250 257 257 253 252 257 254 244 246 243 241 241 239 237 238 239 241 240 243 242 238 233 237 242 241 244 233 229 236 244 250 275 299 307
309 292 272 266 262 262 262 254 247 248 249 254 256 256 257 255 248 243 246 245 240 238 239 239 240 241 242 239 238 237 237 243 239 236 236 225 231 231 233 236 254 282 263
346 334 302 274 265 259 262 255 247 243 245 249 254 260 258 258 251 246 246 246 245 241 239 238 238 240 237 236 232 231 232 235 231 230 225 220 229 233 243 233 253 257 266
24 22 19 352 286 261 262 254 248 244 236 241 248 249 251 251 251 251 248 241 248 247 244 240 238 239 234 237 222 218 228 229 224 221 218 222 232 240 244 238 235 263 271
19 19 23 23 18 345 258 253 244 248 236 234 243 243 247 247 249 250 250 249 250 244 243 238 235 234 227 225 207 202 208 214 220 219 221 230 224 233 239 238 252 255 268
8 9 9 13 16 14 358 259 244 245 246 235 238 246 248 249 249 246 249 248 255 248 239 242 233 229 221 222 212 206 200 215 190 216 218 226 231 239 235 236 242 249 259
353 353 354 354 358 4 6 0 271 251 246 245 239 246 249 251 246 242 243 248 249 253 245 243 244 232 223 223 218 218 215 204 189 179 201 212 210 213 220 229 232 242 265
346 344 345 347 341 342 350 354 349 297 259 253 247 249 249 245 241 239 245 245 252 251 254 250 248 246 234 227 226 219 218 221 223 198 191 199 200 205 213 221 224 241 279
332 330 331 335 339 334 328 334 334 328 321 259 249 247 248 250 244 238 247 242 248 250 253 255 253 248 244 234 232 223 220 213 216 221 189 180 199 191 202 214 227 255 282